Location: Harwich
(41.7160°N, 69.9939°W)
Time: 01:33:00
(UTC+02:00)

AO-7 - Pass Details

Date: 23 September 2024
Orbit: 1440 x 1458 km, 102.0° (Epoch: 10 October)

Event Time Altitude Azimuth Distance (km) Brightness Sun altitude
Rises 01:17:11 0° 218° (SW) 4,542 ? -8.5°
Reaches altitude 10° 01:21:50 10° 242° (WSW) 3,573 ? -9.3°
Maximum altitude 01:25:51 14° 271° (W) 3,258 ? -10.1°
Drops below altitude 10° 01:29:55 10° 301° (WNW) 3,587 ? -10.8°
Sets 01:34:40 0° 325° (NW) 4,573 ? -11.7°
